Weather History for Cody, WY

Change the Weather History Date:

Tuesday, April 2, 2013

  Actual Average Record
Temperature  
Mean Temperature 44 °F -  
Max Temperature 62 °F 51 °F 74 °F (1943)
Min Temperature 26 °F 28 °F -18 °F (1936)
Degree Days  
Heating Degree Days 21    
Moisture  
Dew Point 22 °F    
Average Humidity 44    
Maximum Humidity 75    
Minimum Humidity 19    
Precipitation  
Precipitation 0.00 in - - ()
Sea Level Pressure  
Sea Level Pressure 30.02 in    
Wind  
Wind Speed 3 mph (SSE)    
Max Wind Speed 12 mph    
Max Gust Speed 16 mph    
Visibility 10 miles    
Events      
Averages and records for this station are not official NWS values.
T = Trace of Precipitation, MM = Missing Value Source: NWS Daily Summary

Daily Weather History Graph

Daily Weather History Graph

Search for Another Location

Airport:

Trip Planner

Search our weather history database for the weather conditions in past years. The results will help you decide how hot, cold, wet, or windy it might be!

Date:

Astronomy

Apr. 02, 2013 Rise Set
Actual Time 6:54 AM MDT 7:45 PM MDT
Civil Twilight 6:25 AM MDT 8:14 PM MDT
Nautical Twilight 5:50 AM MDT 8:49 PM MDT
Astronomical Twilight 5:13 AM MDT 9:26 PM MDT
Moon 2:02 AM MDT (4/2) 11:39 AM MDT (4/2)
Length of Visible Light 13h 49m
Length of Day
12h 50m
Waning Gibbous, 55% of the Moon is Illuminated
Apr 2
Waning Gibbous
Apr 2
Last Quarter
Apr 10
New
Apr 18
First Quarter
Apr 25
Full

Hourly Weather History & Observations

Time (MDT) Temp. Windchill Dew Point Humidity Pressure Visibility Wind Dir Wind Speed Gust Speed Precip Events Conditions
12:15 AM 33.8 °F - 19.4 °F 56% 30.04 in 10.0 mi Calm Calm - N/A   Clear
12:35 AM 33.8 °F 30.8 °F 19.4 °F 56% 30.04 in 10.0 mi South 3.5 mph - N/A   Clear
12:55 AM 33.8 °F 29.6 °F 21.2 °F 60% 30.05 in 10.0 mi SSE 4.6 mph - N/A   Clear
1:15 AM 32.0 °F 26.4 °F 19.4 °F 60% 30.05 in 10.0 mi South 5.8 mph - N/A   Clear
1:35 AM 32.0 °F 26.4 °F 21.2 °F 64% 30.05 in 10.0 mi South 5.8 mph - N/A   Clear
1:55 AM 33.8 °F 29.6 °F 21.2 °F 60% 30.05 in 10.0 mi South 4.6 mph - N/A   Clear
2:15 AM 33.8 °F - 21.2 °F 60% 30.04 in 10.0 mi Calm Calm - N/A   Clear
2:35 AM 35.6 °F 31.7 °F 21.2 °F 56% 30.04 in 10.0 mi SSW 4.6 mph - N/A   Clear
2:55 AM 35.6 °F 32.8 °F 24.8 °F 65% 30.04 in 10.0 mi SW 3.5 mph - N/A   Clear
3:15 AM 35.6 °F 30.7 °F 24.8 °F 65% 30.04 in 10.0 mi WSW 5.8 mph - N/A   Clear
3:35 AM 35.6 °F - 23.0 °F 60% 30.04 in 10.0 mi Calm Calm - N/A   Clear
3:55 AM 30.2 °F - 21.2 °F 69% 30.04 in 10.0 mi Calm Calm - N/A   Clear
4:15 AM 30.2 °F - 21.2 °F 69% 30.04 in - Calm Calm - N/A   Clear
4:35 AM 32.0 °F - 21.2 °F 64% 30.04 in - Calm Calm - N/A   Clear
4:55 AM 30.2 °F - 21.2 °F 69% 30.04 in - Calm Calm - N/A   Clear
5:15 AM 30.2 °F 26.7 °F 21.2 °F 69% 30.05 in 10.0 mi South 3.5 mph - N/A   Clear
5:35 AM 30.2 °F 26.7 °F 21.2 °F 69% 30.05 in 10.0 mi SSE 3.5 mph - N/A   Clear
5:55 AM 32.0 °F 28.7 °F 21.2 °F 64% 30.05 in 10.0 mi SSE 3.5 mph - N/A   Clear
6:15 AM 28.4 °F 24.6 °F 19.4 °F 69% 30.06 in 10.0 mi SSE 3.5 mph - N/A   Clear
6:35 AM 30.2 °F - 21.2 °F 69% 30.06 in 10.0 mi Calm Calm - N/A   Clear
6:55 AM 26.6 °F - 19.4 °F 74% 30.06 in 10.0 mi Calm Calm - N/A   Clear
7:15 AM 28.4 °F - 21.2 °F 74% 30.07 in 10.0 mi Calm Calm - N/A   Clear
7:35 AM 30.2 °F - 23.0 °F 75% 30.07 in 10.0 mi Calm Calm - N/A   Clear
7:55 AM 30.2 °F - 23.0 °F 75% 30.07 in 10.0 mi Calm Calm - N/A   Clear
8:35 AM 37.4 °F - 26.6 °F 65% 30.08 in 10.0 mi Calm Calm - N/A   Clear
8:55 AM 42.8 °F - 26.6 °F 53% 30.07 in 10.0 mi Calm Calm - N/A   Clear
9:15 AM 42.8 °F 40.1 °F 26.6 °F 53% 30.07 in 10.0 mi SW 4.6 mph - N/A   Clear
9:35 AM 44.6 °F - 24.8 °F 46% 30.07 in 10.0 mi Calm Calm - N/A   Clear
9:55 AM 46.4 °F - 26.6 °F 46% 30.07 in 10.0 mi Calm Calm - N/A   Clear
10:15 AM 46.4 °F - 26.6 °F 46% 30.07 in 10.0 mi Calm Calm - N/A   Clear
10:35 AM 48.2 °F - 26.6 °F 43% 30.06 in 10.0 mi SSE 3.5 mph - N/A   Clear
10:55 AM 51.8 °F - 26.6 °F 38% 30.06 in 10.0 mi Calm Calm - N/A   Clear
11:15 AM 51.8 °F - 26.6 °F 38% 30.06 in 10.0 mi South 5.8 mph - N/A   Clear
11:35 AM 53.6 °F - 26.6 °F 35% 30.05 in 10.0 mi South 6.9 mph - N/A   Clear
11:55 AM 53.6 °F - 26.6 °F 35% 30.04 in 10.0 mi ESE 4.6 mph - N/A   Clear
12:15 PM 55.4 °F - 26.6 °F 33% 30.04 in 10.0 mi SSE 3.5 mph - N/A   Clear
12:35 PM 55.4 °F - 24.8 °F 31% 30.04 in 10.0 mi ESE 6.9 mph - N/A   Clear
12:55 PM 55.4 °F - 26.6 °F 33% 30.03 in 10.0 mi East 4.6 mph - N/A   Clear
1:15 PM 57.2 °F - 24.8 °F 29% 30.02 in 10.0 mi SE 4.6 mph - N/A   Clear
1:35 PM 57.2 °F - 24.8 °F 29% 30.02 in 10.0 mi SSE 9.2 mph 16.1 mph N/A   Clear
1:55 PM 57.2 °F - 23.0 °F 27% 30.01 in 10.0 mi Calm Calm - N/A   Clear
2:15 PM 59.0 °F - 21.2 °F 23% 30.01 in 10.0 mi ESE 6.9 mph - N/A   Clear
2:35 PM 59.0 °F - 21.2 °F 23% 30.00 in 10.0 mi NNE 5.8 mph - N/A   Clear
2:55 PM 60.8 °F - 21.2 °F 22% 29.99 in 10.0 mi East 9.2 mph - N/A   Clear
3:15 PM 60.8 °F - 19.4 °F 20% 29.98 in 10.0 mi East 9.2 mph - N/A   Clear
3:35 PM 62.6 °F - 19.4 °F 19% 29.98 in 10.0 mi East 6.9 mph - N/A   Clear
3:55 PM 60.8 °F - 19.4 °F 20% 29.97 in 10.0 mi North 3.5 mph - N/A   Clear
4:15 PM 62.6 °F - 19.4 °F 19% 29.97 in 10.0 mi SE 9.2 mph - N/A   Clear
4:35 PM 62.6 °F - 21.2 °F 20% 29.96 in 10.0 mi East 8.1 mph - N/A   Clear
4:55 PM 62.6 °F - 19.4 °F 19% 29.96 in 10.0 mi ESE 10.4 mph 16.1 mph N/A   Clear
5:35 PM 62.6 °F - 19.4 °F 19% 29.95 in 10.0 mi East 10.4 mph - N/A   Clear
5:55 PM 62.6 °F - 19.4 °F 19% 29.95 in 10.0 mi ESE 10.4 mph - N/A   Clear
6:15 PM 62.6 °F - 19.4 °F 19% 29.95 in 10.0 mi SE 11.5 mph - N/A   Clear
6:35 PM 60.8 °F - 17.6 °F 19% 29.95 in 10.0 mi ESE 11.5 mph - N/A   Clear
6:55 PM 60.8 °F - 17.6 °F 19% 29.95 in 10.0 mi SE 8.1 mph - N/A   Clear
7:15 PM 59.0 °F - 17.6 °F 20% 29.95 in 10.0 mi ESE 9.2 mph - N/A   Clear
7:35 PM 57.2 °F - 17.6 °F 21% 29.95 in 10.0 mi ESE 9.2 mph - N/A   Clear
8:35 PM 48.2 °F - 17.6 °F 30% 29.96 in 10.0 mi SSE 6.9 mph - N/A   Clear
8:55 PM 48.2 °F - 17.6 °F 30% 29.96 in 10.0 mi South 4.6 mph - N/A   Clear
9:15 PM 48.2 °F - 19.4 °F 32% 29.97 in 10.0 mi SW 3.5 mph - N/A   Clear
9:35 PM 48.2 °F - 17.6 °F 30% 29.97 in 10.0 mi Calm Calm - N/A   Clear
9:55 PM 48.2 °F - 19.4 °F 32% 29.97 in 10.0 mi Calm Calm - N/A   Clear
10:15 PM 44.6 °F - 19.4 °F 37% 29.97 in 10.0 mi Calm Calm - N/A   Clear
10:35 PM 42.8 °F - 21.2 °F 42% 29.97 in 10.0 mi Calm Calm - N/A   Clear
10:55 PM 41.0 °F 39.0 °F 21.2 °F 45% 29.97 in 10.0 mi South 3.5 mph - N/A   Clear
11:15 PM 44.6 °F 42.2 °F 21.2 °F 39% 29.97 in 10.0 mi WSW 4.6 mph - N/A   Clear
11:35 PM 41.0 °F 36.4 °F 19.4 °F 42% 29.97 in 10.0 mi SSW 6.9 mph - N/A   Clear